"Time","Temp","Dewpoint","Humidity","Pressure","Direction","Speed","Gust","Precip","PrecipRate"
"00:04:57","71.2","65.1","81.1","29.90","207","0","0","0.00","0.00"
"00:09:59","71.2","65.4","82","29.90","207","0","0","0.00","0.00"
"00:14:59","71.3","65.5","82","29.90","207","0","0","0.00","0.00"
"00:19:57","71.4","65.6","82","29.90","207","0","0","0.00","0.00"
"00:24:56","71.5","65.6","81.6","29.90","207","0","0","0.00","0.00"
"00:29:59","71.3","65.5","82","29.90","207","0","0","0.00","0.00"
"00:34:58","71.2","65.4","82","29.90","207","0","0","0.00","0.00"
"00:39:58","71.1","65.3","82","29.90","207","0","0","0.00","0.00"
"00:44:56","71.1","65.3","82","29.90","207","0","0","0.00","0.00"
"00:49:59","71.1","65.3","82","29.90","207","0","0","0.00","0.00"
"00:54:58","71.1","65.3","82","29.90","207","0","0","0.00","0.00"
"00:59:57","71.1","65.3","82","29.90","207","0","0","0.00","0.00"
"01:04:57","71","65.2","82","29.90","207","0","0","0.00","0.00"
"01:09:59","70.8","65.3","82.8","29.90","207","0","0","0.00","0.00"
"01:14:59","70.6","65.2","83","29.90","207","0","0","0.00","0.00"
"01:19:58","70.4","65.2","83.6","29.89","207","0","0","0.00","0.00"
"01:24:56","70.3","65.2","84","29.89","207","0","0","0.00","0.00"
"01:29:56","70.1","65","84","29.89","207","0","0","0.00","0.00"
"01:34:59","70.1","65.2","84.4","29.89","186","0.2","3.6","0.00","0.00"
"01:39:59","70.3","65.5","84.6","29.89","186","0.1","3.5","0.00","0.00"
"01:44:57","70.4","65.7","84.8","29.89","186","1.2","2.4","0.00","0.00"
"01:49:57","70.4","65.7","85","29.89","186","0.1","1.2","0.00","0.00"
"01:54:56","70.4","65.7","85","29.89","186","0","0","0.00","0.00"
"01:59:59","70.3","65.6","85","29.89","186","0","0","0.00","0.00"
"02:04:58","70.1","65.4","85","29.88","186","0.1","2.4","0.00","0.00"
"02:09:57","70.1","65.4","85.2","29.88","186","0.1","1.2","0.00","0.00"
"02:14:56","70","65.4","85.5","29.88","186","0.1","2.4","0.00","0.00"
"02:19:56","69.8","65.4","86","29.87","186","0.3","2.3","0.00","0.00"
"02:24:59","69.8","65.4","86","29.87","186","0.2","2.4","0.00","0.00"
"02:29:58","69.8","65.4","86","29.87","186","0.7","2.4","0.00","0.00"
"02:34:56","69.8","65.4","86","29.87","186","0","1.2","0.00","0.00"
"02:39:56","69.8","65.4","86","29.87","186","0","0","0.00","0.00"
"02:44:59","69.8","65.4","86","29.87","186","0","0","0.00","0.00"
"02:49:59","69.8","65.4","86","29.87","186","0","0","0.00","0.00"
"02:54:58","69.7","65.3","86","29.87","186","0","0","0.00","0.00"
"02:59:57","69.6","65.3","86.4","29.87","186","0","0","0.00","0.00"
"03:04:58","69.4","65.4","87","29.87","186","1.1","2.4","0.00","0.00"
"03:09:57","69.3","65.3","87","29.87","186","0.8","2.4","0.00","0.00"
"03:14:57","69.3","65.3","87","29.87","186","0","0","0.00","0.00"
"03:19:56","69.3","65.3","87","29.87","186","0","0","0.00","0.00"
"03:24:59","69.3","65.3","87","29.87","186","0","0","0.00","0.00"
"03:29:58","69.2","65.2","87","29.87","186","0","0","0.00","0.00"
"03:34:57","69.1","65.1","87","29.87","186","0","0","0.00","0.00"
"03:39:57","69","65.3","87.9","29.87","186","0.2","2.4","0.00","0.00"
"03:44:56","68.9","65.5","88.9","29.87","186","0.4","2.4","0.00","0.00"
"03:49:57","69","65.6","89","29.87","186","0.2","2.3","0.00","0.00"
"03:54:57","69.2","65.7","88.7","29.87","186","0","1.2","0.00","0.00"
"03:59:57","69.3","65.7","88.5","29.87","186","0.3","2.4","0.00","0.00"
"04:04:57","69.3","65.6","88","29.87","186","0.1","1.2","0.00","0.00"
"04:09:56","69.2","65.6","88.6","29.87","186","0","0","0.00","0.00"
"04:14:56","69.1","65.7","89","29.87","186","0","0","0.00","0.00"
"04:19:57","69","65.6","89","29.87","186","0","0","0.00","0.00"
"04:24:56","68.9","65.5","89","29.87","186","0","0","0.00","0.00"
"04:29:56","68.8","65.4","89","29.87","186","0.4","2.4","0.00","0.00"
"04:34:59","68.8","65.6","89.6","29.87","186","0.9","2.4","0.00","0.00"
"04:39:59","68.7","65.6","89.9","29.87","186","0","1.2","0.00","0.00"
"04:44:57","68.7","65.5","89.9","29.87","186","0","0","0.00","0.00"
"04:49:57","68.7","65.8","90.6","29.87","186","0","0","0.00","0.00"
"04:54:56","68.7","65.6","90","29.87","186","0","0","0.00","0.00"
"04:59:59","68.9","66.2","91","29.87","171","0.5","3.6","0.00","0.00"
"05:04:59","69.4","66.5","90.5","29.86","156","1.4","4.8","0.00","0.00"
"05:09:57","70","66.8","89.7","29.86","153","1.2","4.8","0.00","0.00"
"05:14:57","70.4","67","89","29.86","145","1.7","4.8","0.00","0.00"
"05:19:56","70.7","67","88.1","29.86","142","1.1","3.6","0.00","0.00"
"05:24:59","70.9","67.1","87.6","29.86","142","0.7","3.6","0.00","0.00"
"05:29:58","71.1","67.1","87.4","29.86","147","1","3.6","0.00","0.00"
"05:34:58","71.2","67.1","87","29.86","160","2.2","4.8","0.00","0.00"
"05:39:58","71.2","67.1","87","29.86","161","1.5","3.6","0.00","0.00"
"05:44:57","71.3","67.2","87","29.86","160","1.7","3.6","0.00","0.00"
"05:49:56","71.3","67.2","87","29.86","160","0.5","2.4","0.00","0.00"
"05:54:55","71.2","67.1","87","29.86","160","0.4","2.4","0.00","0.00"
"05:59:59","71","66.9","87","29.86","160","1.2","3.6","0.00","0.00"
"06:04:58","70.9","66.8","87","29.86","160","1.4","3.6","0.00","0.00"
"06:09:58","70.8","66.8","87.3","29.86","161","1.8","3.6","0.00","0.00"
"06:14:58","70.8","67.1","88","29.86","160","1","3.5","0.00","0.00"
"06:19:57","70.7","67","88","29.86","158","1.1","3.6","0.00","0.00"
"06:24:56","70.6","66.9","88","29.86","158","0.6","2.4","0.00","0.00"
"06:29:55","70.5","66.8","88","29.86","158","0.2","1.2","0.00","0.00"
"06:34:58","70.4","67","88.9","29.86","158","0","0","0.00","0.00"
"06:39:56","70.4","67","89","29.86","158","0","0","0.00","0.00"
"06:44:59","70.4","67","89","29.86","158","0","0","0.00","0.00"
"06:49:58","70.5","67.1","89","29.86","158","0","0","0.00","0.00"
"06:54:57","70.6","67.2","89","29.86","158","0","0","0.00","0.00"
"06:59:55","70.7","67.3","89","29.87","158","0","0","0.00","0.00"
"07:04:59","70.8","67.4","89","29.87","158","0","0","0.00","0.00"
"07:09:57","70.9","67.5","89","29.87","158","0","0","0.00","0.00"
"07:14:56","71","67.5","88.7","29.87","158","0","0","0.00","0.00"
"07:19:59","71.2","67.8","89","29.87","158","0.1","3.6","0.00","0.00"
"07:24:57","71.5","67.8","88","29.87","157","1.5","3.6","0.00","0.00"
"07:29:56","71.8","68.1","88","29.87","157","1","3.6","0.00","0.00"
"07:34:58","72.2","68.3","87.7","29.87","87","1.4","3.6","0.00","0.00"
"07:39:57","72.6","68.6","87.1","29.87","103","1.7","3.6","0.00","0.00"
"07:44:59","72.9","68.7","86.5","29.87","149","1.8","4.8","0.00","0.00"
"07:49:58","73.2","68.9","86.3","29.87","160","2.1","3.6","0.00","0.00"
"07:54:56","73.6","69","85.7","29.87","161","2.2","6","0.00","0.00"
"07:59:59","74","69.4","85.4","29.87","163","2.1","4.8","0.00","0.00"
"08:04:58","74.5","69.6","84.8","29.87","202","1.9","6","0.00","0.00"
"08:09:57","74.8","69.7","84.3","29.87","183","2","5.8","0.00","0.00"
"08:14:56","75.3","69.9","83.2","29.87","176","2.4","6","0.00","0.00"
"08:19:58","75.9","70.2","82.3","29.87","154","2.1","5.8","0.00","0.00"
"08:24:56","76.5","70.3","81.3","29.87","207","2.7","7.2","0.00","0.00"
"08:29:59","77.1","70.7","80.9","29.88","188","2.8","6","0.00","0.00"
"08:34:56","77.7","70.9","79.9","29.88","184","2.5","4.8","0.00","0.00"
"08:39:56","78.2","71.3","79.6","29.88","184","2.1","4.8","0.00","0.00"
"08:44:58","78.7","71.7","79","29.88","180","2","4.8","0.00","0.00"
"08:49:58","79.3","71.8","77.9","29.88","184","1.8","4.6","0.00","0.00"
"08:54:57","79.9","71.8","76.5","29.88","182","2.6","4.8","0.00","0.00"
"08:59:57","80.3","71.7","75.2","29.88","192","2.9","6","0.00","0.00"
"09:04:57","80.6","71.9","74.8","29.87","187","2.4","4.8","0.00","0.00"
"09:09:57","81","72.1","74.5","29.87","171","2.7","6","0.00","0.00"
"09:14:57","81.4","72.1","73.5","29.87","169","3.2","7.2","0.00","0.00"
"09:19:56","81.8","72.5","73.4","29.87","175","1.1","5.8","0.00","0.00"
"09:24:58","82.4","72.5","72.1","29.87","236","2.5","6","0.00","0.00"
"09:29:57","82.8","72.7","71.8","29.87","248","1.7","4.8","0.00","0.00"
"09:34:56","83.4","72.6","70","29.87","194","2.7","6","0.00","0.00"
"09:39:56","83.9","72.5","68.6","29.87","178","2.2","4.8","0.00","0.00"
"09:44:59","84","72.5","68.5","29.87","212","3.1","6","0.00","0.00"
"09:49:58","84.1","72.5","68.1","29.87","199","3.6","7.2","0.00","0.00"
"09:54:57","84.5","72.5","67.5","29.87","185","4.1","8.4","0.00","0.00"
"09:59:57","84.8","72.6","67","29.87","189","3.3","8.4","0.00","0.00"
"10:04:57","85.2","72.8","66.6","29.86","186","3.2","7.2","0.00","0.00"
"10:09:57","85.4","72.9","66.4","29.86","205","2.6","4.8","0.00","0.00"
"10:14:56","85.7","72.5","64.9","29.86","195","2.8","7.2","0.00","0.00"
"10:19:56","85.7","71.9","63.5","29.86","187","2.2","7.2","0.00","0.00"
"10:24:59","86","71.8","62.6","29.86","179","3.3","8.4","0.00","0.00"
"10:29:58","86.3","71.7","61.9","29.86","216","3","8.4","0.00","0.00"
"10:34:57","86.6","71.7","61.3","29.86","201","2.1","8.4","0.00","0.00"
"10:39:58","86.9","71.6","60.6","29.86","208","2.5","8.4","0.00","0.00"
"10:44:58","87.3","71.4","59.5","29.86","188","2.8","7.2","0.00","0.00"
"10:49:58","87.6","71","58","29.85","153","2.8","8.4","0.00","0.00"
"10:54:58","87.8","71","57.6","29.85","166","3.8","8.4","0.00","0.00"
"10:59:58","87.8","71.3","58.3","29.85","153","3.5","8.4","0.00","0.00"
"11:04:59","87.8","71.5","58.7","29.84","185","3.2","7.2","0.00","0.00"
"11:09:58","88.1","71","57","29.84","182","3.2","7.2","0.00","0.00"
"11:14:59","88.4","71.1","56.8","29.84","131","1.8","4.8","0.00","0.00"
"11:19:59","88.6","70.9","56.1","29.84","117","1.3","4.6","0.00","0.00"
"11:24:56","88.8","71.5","56.9","29.84","166","3.5","10.8","0.00","0.00"
"11:29:59","88.9","71.6","56.6","29.84","192","4","10.8","0.00","0.00"
"11:34:56","89","71.5","56.5","29.84","185","5.5","12","0.00","0.00"
"11:39:57","89","71.3","56.1","29.84","179","4.3","8.4","0.00","0.00"
"11:44:57","89.2","71.6","56.3","29.84","174","2.6","7.2","0.00","0.00"
"11:49:57","89.8","72","56.1","29.84","177","3.5","7.2","0.00","0.00"
"11:54:57","90.1","71.4","54.3","29.84","179","4","10.8","0.00","0.00"
"11:59:57","90.2","72.2","55.7","29.84","189","4.5","8.4","0.00","0.00"
"12:04:57","90.5","72.4","55.6","29.84","193","3.3","9.6","0.00","0.00"
"12:09:56","90.7","71.7","53.9","29.84","146","2.2","5.8","0.00","0.00"
"12:14:57","91.1","72.1","53.9","29.84","190","4.4","9.6","0.00","0.00"
"12:19:57","90.9","70.8","51.9","29.84","235","3.4","8.1","0.00","0.00"
"12:24:57","90.9","72","54.1","29.84","239","4","12","0.00","0.00"
"12:29:57","91","71.5","53","29.84","185","3.8","10.8","0.00","0.00"
"12:34:56","90.8","71","52.4","29.84","194","2.8","8.4","0.00","0.00"
"12:39:57","90.7","71","52.5","29.84","191","4","13.2","0.00","0.00"
"12:44:56","90.6","70.7","52.3","29.84","184","3.6","11.5","0.00","0.00"
"12:49:57","90.2","70.8","53.1","29.83","190","3.6","8.4","0.00","0.00"
"12:54:56","89.8","70.3","52.9","29.83","162","2.8","8.1","0.00","0.00"
"12:59:56","90.7","72.4","55.1","29.83","179","4","7.2","0.00","0.00"
"13:04:56","91.9","72","52.6","29.82","183","4.3","10.8","0.00","0.00"
"13:09:57","92","72.1","52.4","29.82","193","5.2","12","0.00","0.00"
"13:14:57","92.5","72.2","51.8","29.82","183","4.1","8.4","0.00","0.00"
"13:19:57","92.4","71.7","51.2","29.82","200","4.1","12","0.00","0.00"
"13:24:57","91.9","70.7","50.2","29.82","208","4.6","12","0.00","0.00"
"13:29:57","90.8","71.3","53.1","29.83","246","4","11.5","0.00","0.00"
"13:34:56","91.1","72.1","54.1","29.83","206","3.9","8.1","0.00","0.00"
"13:39:57","92.3","72.1","52.1","29.83","218","4.1","10.8","0.00","0.00"
"13:44:57","92.9","72.4","51.5","29.83","215","2.5","7.2","0.00","0.00"
"13:49:57","92.6","71.4","50.4","29.82","238","3.8","8.4","0.00","0.00"
"13:54:57","92.5","72.6","52.5","29.82","233","4.2","8.4","0.00","0.00"
"13:59:57","92.6","71.8","50.9","29.83","215","4.4","10.8","0.00","0.00"
"14:04:57","91.8","71.3","51.4","29.83","194","3.3","7.2","0.00","0.00"
"14:09:57","91.1","71.1","52.3","29.83","205","5.1","8.4","0.00","0.00"
"14:14:57","90.7","72","54.3","29.83","232","3.7","7.2","0.00","0.00"
"14:19:57","91.4","73.2","55.4","29.82","183","3.5","6","0.00","0.00"
"14:24:57","93.1","73.8","53.8","29.82","187","3.6","13.2","0.00","0.00"
"14:29:57","92.9","72.5","51.7","29.82","228","5.5","13.2","0.00","0.00"
"14:34:56","93","73.8","53.8","29.82","188","3.5","12","0.00","0.00"
"14:39:57","93.7","73.8","52.8","29.82","212","5.7","12","0.00","0.00"
"14:44:56","93.8","72.8","50.8","29.82","182","5.9","13.2","0.00","0.00"
"14:49:57","93.3","73.2","52.3","29.81","185","4.1","11.5","0.00","0.00"
"14:54:56","92.6","72.8","52.6","29.81","200","4.5","9.2","0.00","0.00"
"14:59:56","92.6","72.9","52.9","29.81","202","4.6","12","0.00","0.00"
"15:04:56","93.1","73.5","53.1","29.81","192","4","11.5","0.00","0.00"
"15:09:56","93.9","73.2","51.4","29.81","183","4.1","12","0.00","0.00"
"15:14:56","94.3","72.8","50","29.81","196","4.1","10.8","0.00","0.00"
"15:19:56","94.4","73.4","50.7","29.80","212","3.5","6.9","0.00","0.00"
"15:24:59","94.8","73","49.7","29.80","198","6.3","12","0.00","0.00"
"15:29:56","94.8","73.2","49.8","29.80","202","5.3","12","0.00","0.00"
"15:34:56","95","73.8","50.7","29.79","187","3.4","8.4","0.00","0.00"
"15:39:56","95.2","73.7","50.1","29.79","212","3.4","8.4","0.00","0.00"
"15:44:56","95","72.9","49.1","29.79","217","5.7","12","0.00","0.00"
"15:49:56","94.5","73","49.9","29.79","227","4.7","9.2","0.00","0.00"
"15:54:56","94.4","72.9","50","29.79","204","4.4","10.8","0.00","0.00"
"15:59:56","94","72.9","50.7","29.79","181","3.4","7.2","0.00","0.00"
"16:04:56","93.7","73","51.4","29.78","170","2.8","6","0.00","0.00"
"16:09:59","94","73.9","52.4","29.78","232","3.9","8.4","0.00","0.00"
"16:14:56","94.1","73.6","51.7","29.79","183","4.5","12","0.00","0.00"
"16:19:56","94.6","74.3","52.2","29.79","216","5","11.5","0.00","0.00"
"16:24:59","95.1","73.7","50.4","29.79","201","5.1","8.4","0.00","0.00"
"16:29:59","95.4","73.9","50.2","29.79","208","5.5","15","0.00","0.00"
"16:34:58","95.4","73.4","49.4","29.79","204","5.2","12","0.00","0.00"
"16:39:59","95.3","73.7","50","29.79","199","5","12","0.00","0.00"
"16:44:58","95.3","73.4","49.6","29.79","217","4.1","11.5","0.00","0.00"
"16:49:58","95.3","74.1","50.6","29.78","182","5.2","15","0.00","0.00"
"16:54:58","95.2","74.3","51.2","29.78","191","5","15","0.00","0.00"
"16:59:58","94.7","74.2","51.8","29.79","227","5.7","13.2","0.00","0.00"
"17:04:58","94.5","75","53.5","29.79","235","4.7","13.2","0.00","0.00"
"17:09:57","93.8","73.4","51.8","29.79","204","5.1","12","0.00","0.00"
"17:14:57","92.6","72.7","52.6","29.79","196","5.4","15","0.00","0.00"
"17:19:58","91.7","72.9","54.3","29.79","204","3.5","11.5","0.00","0.00"
"17:24:57","91.3","73","55.2","29.79","193","3.8","10.8","0.00","0.00"
"17:29:57","91.4","73.8","56.5","29.79","194","4.2","10.8","0.00","0.00"
"17:34:57","92.3","74.1","55.5","29.79","189","5.6","12","0.00","0.00"
"17:39:57","93.2","74.8","55.4","29.79","216","5.9","13.2","0.00","0.00"
"17:44:58","92.9","74.2","54.7","29.79","209","6","14.4","0.00","0.00"
"17:49:58","91.9","73.7","55.6","29.79","204","7.3","18.4","0.00","0.00"
"17:54:57","91.3","74.1","57.3","29.79","193","5.7","15","0.00","0.00"
"17:59:57","91","74.6","58.9","29.79","207","6.1","16.1","0.00","0.00"
"18:04:57","90.6","74.5","59.5","29.79","207","7.2","16.1","0.00","0.00"
"18:09:57","90.1","74.5","60.5","29.79","201","5.3","12","0.00","0.00"
"18:14:57","89.9","75.1","62.1","29.79","211","4.2","9.6","0.00","0.00"
"18:19:57","90","75.1","61.9","29.79","197","5.7","13.2","0.00","0.00"
"18:24:56","90.1","75.5","62.4","29.79","226","4","10.8","0.00","0.00"
"18:29:56","89.9","75.1","62","29.79","225","6.6","12","0.00","0.00"
"18:34:59","89.6","74.8","62","29.79","210","4.4","10.8","0.00","0.00"
"18:39:56","89.4","74.7","62.2","29.79","218","5.5","13.2","0.00","0.00"
"18:44:59","89.1","74.9","63","29.79","201","5.1","13.2","0.00","0.00"
"18:49:57","88.9","75","63.8","29.79","189","4.9","12.7","0.00","0.00"
"18:54:57","88.8","75.3","64.6","29.79","195","2.4","8.4","0.00","0.00"
"18:59:57","88.7","75.3","64.8","29.80","203","4.7","13.2","0.00","0.00"
"19:04:57","88.4","75.1","65","29.80","203","5.6","11.5","0.00","0.00"
"19:09:57","88.3","75.2","65.3","29.80","206","4","7.2","0.00","0.00"
"19:14:58","88.1","75.2","65.8","29.80","206","5.1","9.6","0.00","0.00"
"19:19:58","88","75.2","66.1","29.80","189","4.4","8.4","0.00","0.00"
"19:24:58","87.8","75.3","66.5","29.80","205","4.8","13.2","0.00","0.00"
"19:29:58","87.7","75.3","66.8","29.80","188","3.9","10.8","0.00","0.00"
"19:34:57","87.6","75.1","66.7","29.79","187","5","13.2","0.00","0.00"
"19:39:58","87.5","75.2","67","29.79","207","5.3","13.2","0.00","0.00"
"19:44:58","87.3","75","67","29.79","192","5.2","12.7","0.00","0.00"
"19:49:58","87.2","74.9","67","29.79","195","6.1","13.2","0.00","0.00"
"19:54:57","87","74.9","67.5","29.79","180","4.4","8.4","0.00","0.00"
"19:59:58","86.9","75","67.8","29.80","204","4.2","10.8","0.00","0.00"
"20:04:58","86.6","74.8","67.8","29.80","204","4.6","10.4","0.00","0.00"
"20:09:57","86.5","74.7","68","29.80","201","4.4","12","0.00","0.00"
"20:14:58","86.3","74.5","68","29.80","208","3.8","8.4","0.00","0.00"
"20:19:59","86.2","74.4","68","29.80","203","3.8","8.1","0.00","0.00"
"20:24:59","86.1","74.7","69","29.80","214","2.8","7.2","0.00","0.00"
"20:29:59","85.9","74.5","69","29.81","200","5.7","13.2","0.00","0.00"
"20:34:59","85.8","74.4","69","29.81","203","5.4","12","0.00","0.00"
"20:39:57","85.7","74.6","69.4","29.81","188","4.2","12","0.00","0.00"
"20:44:57","85.6","74.6","69.8","29.81","198","2.5","7.2","0.00","0.00"
"20:49:58","85.4","74.5","70","29.81","220","3.9","8.4","0.00","0.00"
"20:54:58","85.3","74.4","70","29.81","202","3.9","8.4","0.00","0.00"
"20:59:59","85.2","74.3","70","29.81","199","4.7","8.4","0.00","0.00"
"21:04:59","85.1","74.6","71","29.81","197","4.2","12","0.00","0.00"
"21:09:59","84.9","74.4","71","29.81","203","4.7","10.8","0.00","0.00"
"21:14:56","84.8","74.3","71","29.82","210","4.3","10.8","0.00","0.00"
"21:19:56","84.6","74.2","71","29.82","214","2.7","6.9","0.00","0.00"
"21:24:57","84.5","74.1","71","29.82","210","4.3","7.2","0.00","0.00"
"21:29:57","84.4","74","71","29.82","202","5.5","12","0.00","0.00"
"21:34:58","84.3","74","71.2","29.82","226","3.5","7.2","0.00","0.00"
"21:39:59","84.1","73.9","71.3","29.82","195","2.7","4.8","0.00","0.00"
"21:44:59","84","73.6","71","29.83","222","4.1","7.2","0.00","0.00"
"21:49:59","83.9","73.5","71","29.83","208","3.3","7.2","0.00","0.00"
"21:54:56","83.8","73.3","70.9","29.83","222","3.7","7.2","0.00","0.00"
"21:59:56","83.6","73.2","71","29.84","225","3","6","0.00","0.00"
"22:04:57","83.5","73.1","71","29.84","203","2.7","5.8","0.00","0.00"
"22:09:56","83.2","72.9","71.2","29.84","232","3.3","8.4","0.00","0.00"
"22:14:57","83.1","73","71.8","29.84","194","3.7","8.4","0.00","0.00"
"22:19:58","83","72.8","71.6","29.84","196","5.8","15","0.00","0.00"
"22:24:58","82.9","72.9","71.9","29.84","194","4.9","13.2","0.00","0.00"
"22:29:58","82.7","72.6","71.8","29.84","206","6.5","15","0.00","0.00"
"22:34:58","82.3","72.4","72","29.84","209","5.8","12","0.00","0.00"
"22:39:59","82.1","72.1","71.8","29.84","213","5.4","13.2","0.00","0.00"
"22:44:59","81.9","72","72","29.84","213","3.8","7.2","0.00","0.00"
"22:49:56","81.6","71.6","71.7","29.83","213","3.9","10.8","0.00","0.00"
"22:54:59","81.5","71.6","72","29.83","205","3.2","8.4","0.00","0.00"
"22:59:56","81.2","71.3","72","29.83","205","3.3","8.4","0.00","0.00"
"23:04:56","81","71","71.6","29.83","194","5","10.8","0.00","0.00"
"23:09:57","80.9","70.6","71","29.83","197","4.5","10.8","0.00","0.00"
"23:14:58","80.7","70","70.2","29.83","196","5.3","12","0.00","0.00"
"23:19:58","80.4","70.2","71.1","29.83","194","5.7","16.1","0.00","0.00"
"23:24:58","80","70.4","72.5","29.83","182","5.2","12","0.00","0.00"
"23:29:59","79.6","70.6","73.9","29.83","197","4.6","12","0.00","0.00"
"23:34:59","79.2","70.6","75","29.83","202","5.6","15","0.00","0.00"
"23:39:56","78.8","70.5","75.9","29.83","190","3.3","8.1","0.00","0.00"
"23:44:56","78.3","70.9","78","29.83","217","6.7","15.6","0.00","0.00"
"23:49:59","77.9","71","79.2","29.82","196","3.7","10.4","0.00","0.00"
"23:54:57","77.7","71.1","80.3","29.82","196","3.8","8.4","0.00","0.00"
